STARLINK-3747 (52306 NORAD) Tracking and Keplerian Element Data

This shows tracking and keplerian element data for the satellite.

Feedback or suggestion? Click here.




ElementValue
Catalog52306
NameSTARLINK-3747
Epoch Orbit130
Epoch Day167.08334491
Epoch Year2022
RAAN100.6285
Inclination53.2162
Eccentricity0.0003982
Argument of Perigee3.9011
Mean Anonmoly307.99
Mean Motion15.73227578
Decay Rate0.00038924
L11 52306U 22041AX 22167.08334491 .00038924 00000+0 28006-3 0 9999
L22 52306 53.2162 100.6285 0003982 3.9011 307.9900 15.73227578 1304

Live tracking and technical data element details for STARLINK-3747 (NORAD 52306). STARLINK-3747 can be tracked NOW for your location showing map with azimuth and elevation plus other details from your city location.

Track the satellite on the map from your city or location and see movement details for azimuth, elevation, latitude, longitude, range, height, and movement on the map or in text.







IsCatalogInMostPopularTable: catalog: 52306, numindb: 2
Update: records affected: 1



GetName: 52306 STARLINK-3747

Hit Count: updated at: Sat, 25 Jun 2022 04:11:18 GMT